Location: Newark
(12.4436°N, 0.6167°W)
Time: 01:12:25
(UTC+00:00)

Vanguard 3 - All Passes

Search period start: 07 December 2019 00:00
Search period end: 17 December 2019 00:00
Orbit: 508 x 3263 km, 33.3° (Epoch: 06 December)

Date Brightness Start Highest point End Pass type
(mag) Time Alt. Az. Time Alt. Az. Time Alt. Az.
07 Dec - 05:25:13 10° SSW 05:29:50 46° SE 05:37:25 10° ENE visible
07 Dec - 07:36:06 10° W 07:42:37 44° NNW 07:54:01 10° NE daylight
07 Dec - 09:50:02 10° WNW 09:59:20 30° N 10:13:19 10° NE daylight
07 Dec - 12:04:34 10° NW 12:18:39 39° NNE 12:36:38 10° E daylight
07 Dec - 14:19:05 10° NW 14:37:56 70° NNE 14:56:29 10° ESE daylight
07 Dec - 16:35:47 10° WNW 16:55:14 59° SW 17:10:18 10° SE daylight
07 Dec - 19:00:16 10° W 19:10:09 17° SW 19:18:07 10° S visible
08 Dec - 04:13:54 10° S 04:16:36 16° SE 04:19:55 10° E visible
08 Dec - 06:22:24 10° WSW 06:27:43 67° NNW 06:37:11 10° NE daylight
08 Dec - 08:35:15 10° WNW 08:42:35 31° N 08:54:18 10° NE daylight
08 Dec - 10:49:32 10° NW 11:00:40 32° N 11:16:28 10° ENE daylight
08 Dec - 13:03:29 10° NW 13:19:56 53° NNE 13:39:05 10° E daylight
08 Dec - 15:18:29 10° WNW 15:38:13 82° SW 15:55:45 10° SE daylight
08 Dec - 17:37:59 10° W 17:54:17 33° SW 18:06:51 10° SSE visible
09 Dec - 05:09:26 10° SW 05:13:46 59° SE 05:20:51 10° ENE visible
09 Dec - 07:20:52 10° W 07:26:47 36° NNW 07:36:39 10° NE daylight
09 Dec - 09:34:45 10° NW 09:43:18 28° N 09:56:09 10° ENE daylight
09 Dec - 11:48:28 10° NW 12:01:59 41° NNE 12:20:01 10° E daylight
09 Dec - 14:02:20 10° NW 14:20:38 76° NNE 14:39:51 10° ESE daylight
09 Dec - 16:18:53 10° WNW 16:37:51 53° SW 16:53:35 10° SSE daylight
09 Dec - 18:44:42 10° WSW 18:53:26 15° SW 19:00:50 10° SSW visible
10 Dec - 03:57:31 10° S 04:00:30 20° SE 04:04:16 10° E visible
10 Dec - 06:07:00 10° WSW 06:11:52 51° NNW 06:20:09 10° NE daylight
10 Dec - 08:20:09 10° WNW 08:26:45 26° N 08:36:56 10° NE daylight
10 Dec - 10:33:51 10° NW 10:44:23 32° NNE 10:59:40 10° ENE daylight
10 Dec - 12:47:03 10° NW 13:02:52 57° NNE 13:22:25 10° ESE daylight
10 Dec - 15:01:39 10° WNW 15:20:46 75° SW 15:39:00 10° SE daylight
10 Dec - 17:21:31 10° W 17:37:09 30° SW 17:49:57 10° SSE daylight
11 Dec - 04:53:43 10° SW 04:57:51 79° SE 05:04:19 10° ENE visible
11 Dec - 07:05:46 10° WNW 07:11:03 28° NNW 07:19:21 10° NE daylight
11 Dec - 09:19:28 10° NW 09:27:21 26° N 09:39:05 10° ENE daylight
11 Dec - 11:32:24 10° NW 11:45:17 43° NNE 12:03:19 10° E daylight
11 Dec - 13:45:43 10° NW 14:03:16 82° NE 14:23:03 10° ESE daylight
11 Dec - 16:02:11 10° WNW 16:20:28 47° SW 16:36:42 10° SSE daylight
11 Dec - 18:29:41 10° WSW 18:36:47 13° SW 18:43:07 10° SSW visible
12 Dec - 03:41:17 10° SSW 03:44:30 26° SE 03:48:31 10° E visible
12 Dec - 05:51:42 10° W 05:56:08 38° NNW 06:03:09 10° NE visible
12 Dec - 08:05:09 10° NW 08:11:00 22° N 08:19:39 10° NE daylight
12 Dec - 10:18:09 10° NW 10:28:06 32° NNE 10:42:52 10° ENE daylight
12 Dec - 12:30:41 10° NW 12:45:46 62° NNE 13:05:35 10° ESE daylight
12 Dec - 14:45:00 10° WNW 15:03:18 68° SW 15:22:03 10° SE daylight
12 Dec - 17:05:18 10° W 17:20:05 26° SW 17:32:51 10° S daylight
13 Dec - 04:38:07 10° WSW 04:42:02 75° NNW 04:47:49 10° NE visible
13 Dec - 06:50:48 10° WNW 06:55:23 22° N 07:02:06 10° NE daylight
13 Dec - 09:04:10 10° NW 09:11:25 24° NNE 09:22:07 10° ENE daylight
13 Dec - 11:16:19 10° NW 11:28:34 45° NNE 11:46:30 10° E daylight
13 Dec - 13:29:12 10° WNW 13:45:54 89° NE 14:06:03 10° SE daylight
13 Dec - 15:45:42 10° WNW 16:03:08 42° SW 16:19:37 10° SSE daylight
13 Dec - 18:15:44 10° SW 18:20:17 11° SW 18:24:32 10° SSW visible
14 Dec - 03:25:12 10° SSW 03:28:36 36° SE 03:32:41 10° ENE visible
14 Dec - 05:36:33 10° W 05:40:29 28° NNW 05:46:13 10° NE visible
14 Dec - 07:50:12 10° NW 07:55:18 19° N 08:02:28 10° NE daylight
14 Dec - 10:02:26 10° NW 10:11:49 32° NNE 10:26:05 10° ENE daylight
14 Dec - 12:14:23 10° NW 12:28:39 67° NNE 12:48:36 10° ESE daylight
14 Dec - 14:28:30 10° WNW 14:45:53 61° SW 15:04:56 10° SE daylight
14 Dec - 16:49:24 10° W 17:03:06 23° SW 17:15:32 10° S daylight
15 Dec - 02:13:59 10° SSE 02:15:08 11° SE 02:16:18 10° SE night (unlit)
15 Dec - 04:22:37 10° WSW 04:26:18 51° NNW 04:31:21 10° NE visible
15 Dec - 06:36:00 10° NW 06:39:47 18° N 06:44:52 10° NE daylight
15 Dec - 08:48:50 10° NNW 08:55:30 23° NNE 09:05:15 10° ENE daylight
15 Dec - 11:00:16 10° NW 11:11:51 48° NNE 11:29:35 10° E daylight
15 Dec - 13:12:49 10° WNW 13:28:34 83° SW 13:48:53 10° SE daylight
15 Dec - 15:29:27 10° W 15:45:53 37° SW 16:02:21 10° SSE daylight
16 Dec - 03:09:12 10° SW 03:12:46 53° SE 03:16:49 10° ENE visible
16 Dec - 05:21:33 10° WNW 05:24:52 20° NNW 05:29:17 10° NNE visible
16 Dec - 07:35:19 10° NNW 07:39:37 16° N 07:45:23 10° NE daylight
16 Dec - 09:46:40 10° NW 09:55:31 33° NNE 10:09:17 10° E daylight
16 Dec - 11:58:09 10° NW 12:11:34 73° NNE 12:31:26 10° ESE daylight
16 Dec - 14:12:11 10° WNW 14:28:33 54° SW 14:47:36 10° SE daylight
16 Dec - 16:33:54 10° WSW 16:46:16 20° SW 16:57:59 10° S daylight
